EW0466 Weather Reports


time (UTC)temp
C
wind
direction
speed
KPH
gust
KPH
rain 1hr
cm
rain 24hr
cm
rain mn
cm
humidity
%
barometer
mb
20260510192529 28 281 1.6 11.3 0.00 0.00 0.00 32 1012.7
20260510192026 28 77 4.8 17.7 0.00 0.00 0.00 31 1012.8
20260510191550 27 188 3.2 17.7 0.00 0.00 0.00 32 1012.9
20260510191025 28 269 4.8 12.9 0.00 0.00 0.00 32 1013.1
20260510190527 28 123 4.8 19.3 0.00 0.00 0.00 35 1013.1
20260510190051 28 173 6.4 19.3 0.00 0.00 0.00 33 1013.1
20260510185526 28 164 3.2 11.3 0.00 0.00 0.00 34 1013.1
20260510185027 28 251 1.6 11.3 0.00 0.00 0.00 30 1013.1
20260510184541 28 88 3.2 19.3 0.00 0.00 0.00 33 1013.1
20260510184026 27 281 9.7 19.3 0.00 0.00 0.00 31 1013.1
20260510183527 27 205 3.2 9.7 0.00 0.00 0.00 34 1013.1
20260510183041 27 0 1.6 14.5 0.00 0.00 0.00 31 1013.0
20260510182526 27 342 4.8 17.7 0.00 0.00 0.00 32 1013.2
20260510182027 27 286 6.4 17.7 0.00 0.00 0.00 34 1013.2
20260510181539 28 352 0.0 14.5 0.00 0.00 0.00 34 1013.2
20260510181026 28 301 4.8 14.5 0.00 0.00 0.00 33 1013.4
20260510180526 28 0 3.2 19.3 0.00 0.00 0.00 33 1013.5
20260510180037 27 249 8.0 19.3 0.00 0.00 0.00 32 1013.5
20260510175526 27 268 1.6 12.9 0.00 0.00 0.00 34 1013.5
20260510175026 27 297 3.2 12.9 0.00 0.00 0.00 30 1013.4
20260510174541 27 257 8.0 12.9 0.00 0.00 0.00 33 1013.4
20260510174028 27 234 3.2 16.1 0.00 0.00 0.00 34 1013.4
20260510173527 27 218 6.4 16.1 0.00 0.00 0.00 31 1013.4
20260510173038 27 315 1.6 14.5 0.00 0.00 0.00 35 1013.4
20260510172527 27 192 6.4 16.1 0.00 0.00 0.00 34 1013.4
20260510172025 27 155 3.2 16.1 0.00 0.00 0.00 32 1013.5
20260510171546 27 276 6.4 16.1 0.00 0.00 0.00 33 1013.6
20260510171025 27 237 3.2 14.5 0.00 0.00 0.00 33 1013.6
20260510170527 26 54 1.6 16.1 0.00 0.00 0.00 33 1013.7
20260510170038 27 277 6.4 16.1 0.00 0.00 0.00 33 1013.8
20260510165526 27 269 4.8 16.1 0.00 0.00 0.00 33 1013.8
20260510165027 26 240 3.2 14.5 0.00 0.00 0.00 38 1013.8
20260510164538 27 298 8.0 14.5 0.00 0.00 0.00 37 1013.7
20260510164026 27 269 3.2 8.0 0.00 0.00 0.00 40 1013.7
20260510163526 27 296 1.6 6.4 0.00 0.00 0.00 37 1013.8
20260510163037 26 360 3.2 6.4 0.00 0.00 0.00 37 1013.6
20260510162527 26 26 1.6 6.4 0.00 0.00 0.00 44 1013.8
20260510162025 26 0 3.2 6.4 0.00 0.00 0.00 40 1013.8
20260510161539 26 0 3.2 8.0 0.00 0.00 0.00 41 1013.8
20260510161026 26 0 1.6 8.0 0.00 0.00 0.00 41 1013.8
20260510160526 26 205 0.0 6.4 0.00 0.00 0.00 41 1013.8
20260510160059 26 203 1.6 12.9 0.00 0.00 0.00 46 1013.9
20260510155525 26 197 1.6 12.9 0.00 0.00 0.00 46 1014.0
20260510155028 25 139 6.4 12.9 0.00 0.00 0.00 44 1014.0
20260510154541 25 129 1.6 11.3 0.00 0.00 0.00 46 1014.2
20260510154026 25 0 3.2 11.3 0.00 0.00 0.00 42 1014.2
20260510153526 25 298 1.6 9.7 0.00 0.00 0.00 46 1014.2
20260510153043 25 178 3.2 11.3 0.00 0.00 0.00 45 1014.2
20260510152526 25 109 3.2 12.9 0.00 0.00 0.00 45 1014.2
20260510152027 25 293 6.4 12.9 0.00 0.00 0.00 44 1014.4
20260510151541 25 284 4.8 12.9 0.00 0.00 0.00 46 1014.5
20260510151026 25 268 3.2 9.7 0.00 0.00 0.00 47 1014.3
20260510150528 25 0 1.6 9.7 0.00 0.00 0.00 47 1014.3
20260510150047 25 340 3.2 9.7 0.00 0.00 0.00 47 1014.2
20260510145526 24 173 1.6 6.4 0.00 0.00 0.00 49 1014.2
20260510145026 24 240 0.0 8.0 0.00 0.00 0.00 49 1014.1
20260510144538 23 198 1.6 8.0 0.00 0.00 0.00 49 1014.1
20260510144026 24 167 1.6 8.0 0.00 0.00 0.00 52 1014.2
20260510143526 24 221 3.2 6.4 0.00 0.00 0.00 54 1014.1
20260510143042 23 351 1.6 6.4 0.00 0.00 0.00 52 1014.1
20260510142526 23 0 0.0 11.3 0.00 0.00 0.00 49 1014.1
20260510142026 23 0 3.2 11.3 0.00 0.00 0.00 52 1014.1
20260510141541 23 289 3.2 9.7 0.00 0.00 0.00 54 1014.0
20260510141027 23 237 1.6 6.4 0.00 0.00 0.00 57 1014.0
20260510140526 22 80 0.0 9.7 0.00 0.00 0.00 58 1013.9
20260510140038 22 229 3.2 9.7 0.00 0.00 0.00 59 1014.0
20260510135526 22 262 3.2 8.0 0.00 0.00 0.00 60 1014.0
20260510135027 22 0 0.0 4.8 0.00 0.00 0.00 62 1013.9
20260510134544 21 259 1.6 9.7 0.00 0.00 0.00 60 1013.9
20260510134026 21 284 1.6 11.3 0.00 0.00 0.00 63 1013.9
20260510133526 21 277 3.2 11.3 0.00 0.00 0.00 64 1014.1
20260510133043 21 263 3.2 9.7 0.00 0.00 0.00 65 1014.2
20260510132526 21 84 1.6 6.4 0.00 0.00 0.00 68 1014.1
20260510132026 20 256 1.6 6.4 0.00 0.00 0.00 70 1014.1
20260510131539 20 273 1.6 8.0 0.00 0.00 0.00 70 1013.8
20260510131026 20 313 1.6 9.7 0.00 0.00 0.00 71 1013.8
20260510130526 20 303 3.2 9.7 0.00 0.00 0.00 72 1013.9
20260510130042 19 302 1.6 4.8 0.00 0.00 0.00 73 1013.8
20260510125526 19 192 0.0 4.8 0.00 0.00 0.00 73 1013.9
20260510125025 18 0 0.0 8.0 0.00 0.00 0.00 76 1013.8
20260510124545 18 225 3.2 9.7 0.00 0.00 0.00 77 1013.9
20260510124026 18 0 0.0 9.7 0.00 0.00 0.00 78 1013.8
20260510123524 18 242 1.6 9.7 0.00 0.00 0.00 79 1013.7
20260510123037 17 0 0.0 0.0 0.00 0.00 0.00 82 1013.6
20260510122525 17 0 0.0 0.0 0.00 0.00 0.00 83 1013.5
20260510122026 16 0 0.0 0.0 0.00 0.00 0.00 85 1013.6
20260510121537 16 0 0.0 0.0 0.00 0.00 0.00 87 1013.6
20260510121027 16 0 0.0 0.0 0.00 0.00 0.00 89 1013.5
20260510120527 15 0 0.0 0.0 0.00 0.00 0.00 89 1013.4
20260510120037 15 0 0.0 3.2 0.00 0.00 0.00 90 1013.4
20260510115526 15 0 0.0 3.2 0.00 0.00 0.00 90 1013.4
20260510115026 14 0 0.0 3.2 0.00 0.00 0.00 89 1013.4
20260510114543 13 0 0.0 4.8 0.00 0.00 0.00 89 1013.4
20260510114026 13 0 0.0 6.4 0.00 0.00 0.00 89 1013.3
20260510113525 12 128 0.0 6.4 0.00 0.00 0.00 88 1013.2
20260510113042 12 0 0.0 0.0 0.00 0.00 0.00 88 1013.2
20260510112526 12 0 0.0 0.0 0.00 0.00 0.00 88 1013.0
20260510112026 12 0 0.0 0.0 0.00 0.00 0.00 87 1012.9
20260510111601 12 0 0.0 0.0 0.00 0.00 0.00 87 1012.7
20260510111022 12 0 0.0 0.0 0.00 0.00 0.00 87 1012.7
20260510110525 12 0 0.0 0.0 0.00 0.00 0.00 87 1012.6
20260510110039 12 0 0.0 0.0 0.00 0.00 0.00 87 1012.4
20260510105525 12 0 0.0 0.0 0.00 0.00 0.00 86 1012.4
20260510105025 12 0 0.0 0.0 0.00 0.00 0.00 86 1012.4
20260510104538 12 0 0.0 0.0 0.00 0.00 0.00 86 1012.3
20260510104026 12 0 0.0 0.0 0.00 0.00 0.00 86 1012.2
20260510103527 12 0 0.0 0.0 0.00 0.00 0.00 86 1012.2
20260510103041 12 0 0.0 0.0 0.00 0.00 0.00 86 1012.2
20260510102526 12 0 0.0 0.0 0.00 0.00 0.00 85 1012.1
20260510102026 12 0 0.0 0.0 0.00 0.00 0.00 85 1012.3
20260510101542 12 0 0.0 0.0 0.00 0.00 0.00 85 1012.2
20260510101026 13 0 0.0 0.0 0.00 0.00 0.00 85 1012.0
20260510100526 13 0 0.0 0.0 0.00 0.00 0.00 85 1011.7
20260510100038 13 0 0.0 0.0 0.00 0.00 0.00 85 1011.6
20260510095525 13 0 0.0 0.0 0.00 0.00 0.00 85 1011.5
20260510095026 13 0 0.0 0.0 0.00 0.00 0.00 85 1011.5
20260510094541 13 0 0.0 0.0 0.00 0.00 0.00 85 1011.5
20260510094025 13 0 0.0 0.0 0.00 0.00 0.00 84 1011.5
20260510093525 13 0 0.0 0.0 0.00 0.00 0.00 84 1011.3
20260510093057 13 0 0.0 0.0 0.00 0.00 0.00 84 1011.4
20260510092526 13 0 0.0 0.0 0.00 0.00 0.00 84 1011.4
20260510092026 13 0 0.0 0.0 0.00 0.00 0.00 84 1011.4
20260510091537 13 0 0.0 0.0 0.00 0.00 0.00 84 1011.3
20260510091027 13 0 0.0 0.0 0.00 0.00 0.00 84 1011.3
20260510090526 14 0 0.0 0.0 0.00 0.00 0.00 84 1011.3
20260510090053 14 0 0.0 0.0 0.00 0.00 0.00 84 1011.2
20260510085525 14 0 0.0 0.0 0.00 0.00 0.00 84 1011.0
20260510085026 14 0 0.0 0.0 0.00 0.00 0.00 84 1010.9
20260510084540 14 0 0.0 0.0 0.00 0.00 0.00 84 1011.1
20260510084026 15 0 0.0 0.0 0.00 0.00 0.00 84 1011.1
20260510083526 15 0 0.0 0.0 0.00 0.00 0.00 84 1011.1
20260510083048 15 0 0.0 0.0 0.00 0.00 0.00 83 1011.0
20260510082525 15 0 0.0 0.0 0.00 0.00 0.00 83 1011.0
20260510082025 15 0 0.0 0.0 0.00 0.00 0.00 84 1011.0
20260510081541 15 0 0.0 0.0 0.00 0.00 0.00 84 1010.9
20260510081025 15 0 0.0 0.0 0.00 0.00 0.00 83 1010.8
20260510080527 15 0 0.0 0.0 0.00 0.00 0.00 83 1010.9
20260510080045 15 0 0.0 0.0 0.00 0.00 0.00 83 1011.0
20260510075526 15 0 0.0 0.0 0.00 0.00 0.00 83 1010.9
20260510075026 15 0 0.0 0.0 0.00 0.00 0.00 83 1010.7
20260510074537 16 0 0.0 0.0 0.00 0.00 0.00 83 1010.8
20260510074026 16 0 0.0 0.0 0.00 0.00 0.00 83 1010.8
20260510073526 16 0 0.0 0.0 0.00 0.00 0.00 82 1010.7
20260510073041 16 0 0.0 0.0 0.00 0.00 0.00 82 1010.7
20260510072526 16 0 0.0 0.0 0.00 0.00 0.00 82 1010.7
20260510072026 16 0 0.0 3.2 0.00 0.00 0.00 83 1010.6
20260510071543 16 0 0.0 4.8 0.00 0.00 0.00 82 1010.5
20260510071025 16 0 0.0 6.4 0.00 0.00 0.00 82 1010.6
20260510070526 16 338 0.0 6.4 0.00 0.00 0.00 82 1010.5
20260510070043 16 271 0.0 6.4 0.00 0.00 0.00 82 1010.6
20260510065529 16 0 0.0 4.8 0.00 0.00 0.00 82 1010.5
20260510065026 16 0 0.0 3.2 0.00 0.00 0.00 82 1010.5
20260510064551 16 0 0.0 6.4 0.00 0.00 0.00 82 1010.4
20260510064025 16 0 0.0 11.3 0.00 0.00 0.00 82 1010.6
20260510063525 16 0 1.6 11.3 0.00 0.00 0.00 82 1010.5
20260510063041 16 0 0.0 4.8 0.00 0.00 0.00 82 1010.7
20260510062527 16 0 0.0 4.8 0.00 0.00 0.00 81 1010.7
20260510062026 16 0 0.0 4.8 0.00 0.00 0.00 81 1010.7
20260510061538 16 0 1.6 4.8 0.00 0.00 0.00 81 1010.6
20260510061026 16 0 0.0 0.0 0.00 0.00 0.00 80 1010.7
20260510060526 17 0 0.0 0.0 0.00 0.00 0.00 80 1011.0
20260510060043 17 0 0.0 0.0 0.00 0.00 0.00 80 1010.9
20260510055527 17 0 0.0 0.0 0.00 0.00 0.00 80 1010.8
20260510055026 17 0 0.0 0.0 0.00 0.00 0.00 80 1010.9
20260510054542 17 0 0.0 0.0 0.00 0.00 0.00 80 1010.8
20260510054026 17 0 0.0 0.0 0.00 0.00 0.00 80 1011.0
20260510053526 17 0 0.0 0.0 0.00 0.00 0.00 80 1010.8
20260510053042 17 0 0.0 0.0 0.00 0.00 0.00 80 1011.0
20260510052526 17 0 0.0 3.2 0.00 0.00 0.00 80 1011.1
20260510052026 17 0 0.0 3.2 0.00 0.00 0.00 80 1011.1
20260510051540 17 0 0.0 4.8 0.00 0.00 0.00 80 1011.1
20260510051027 17 240 0.0 4.8 0.00 0.00 0.00 80 1011.1
20260510050527 17 0 0.0 4.8 0.00 0.00 0.00 80 1011.2
20260510050042 17 0 0.0 4.8 0.00 0.00 0.00 80 1011.1
20260510045526 17 302 0.0 4.8 0.00 0.00 0.00 81 1011.2
20260510045026 17 282 1.6 4.8 0.00 0.00 0.00 82 1011.2
20260510044551 16 281 0.0 8.0 0.00 0.00 0.00 82 1011.2
20260510044026 16 0 1.6 11.3 0.00 0.00 0.00 83 1011.0
20260510043526 16 237 1.6 11.3 0.00 0.00 0.00 83 1011.1
20260510043042 16 286 3.2 9.7 0.00 0.00 0.00 83 1011.1
20260510042526 15 287 0.0 3.2 0.00 0.00 0.00 83 1011.0
20260510042025 15 0 0.0 0.0 0.00 0.00 0.00 83 1011.0
20260510041540 15 0 0.0 0.0 0.00 0.00 0.00 82 1011.1
20260510041026 15 0 0.0 3.2 0.00 0.00 0.00 82 1010.9
20260510040527 15 0 0.0 3.2 0.00 0.00 0.00 82 1011.1
20260510040043 15 289 0.0 1.6 0.00 0.00 0.00 82 1010.8
20260510035525 15 0 0.0 0.0 0.00 0.00 0.00 81 1010.8
20260510035025 15 0 0.0 0.0 0.00 0.00 0.00 81 1010.9
20260510034538 15 0 0.0 0.0 0.00 0.00 0.00 81 1010.9
20260510034026 15 0 0.0 0.0 0.00 0.00 0.00 81 1010.8
20260510033526 15 0 0.0 0.0 0.00 0.00 0.00 80 1010.8
20260510033041 15 0 0.0 0.0 0.00 0.00 0.00 80 1010.7
20260510032525 15 0 0.0 0.0 0.00 0.00 0.00 80 1010.8
20260510032026 15 0 0.0 0.0 0.00 0.00 0.00 80 1010.7
20260510031539 15 0 0.0 0.0 0.00 0.00 0.00 80 1010.8
20260510031026 15 0 0.0 0.0 0.00 0.00 0.00 79 1010.6
20260510030526 15 0 0.0 0.0 0.00 0.00 0.00 79 1010.6
20260510030040 16 0 0.0 0.0 0.00 0.00 0.00 79 1010.6
20260510025526 16 0 0.0 0.0 0.00 0.00 0.00 79 1010.6
20260510025026 16 0 0.0 0.0 0.00 0.00 0.00 78 1010.4
20260510024541 16 0 0.0 0.0 0.00 0.00 0.00 78 1010.3
20260510024025 16 0 0.0 0.0 0.00 0.00 0.00 77 1010.4
20260510023528 16 0 0.0 0.0 0.00 0.00 0.00 77 1010.4
20260510023043 16 0 0.0 0.0 0.00 0.00 0.00 77 1010.5
20260510022526 16 0 0.0 0.0 0.00 0.00 0.00 76 1010.3
20260510022026 16 0 0.0 0.0 0.00 0.00 0.00 76 1010.3
20260510021542 16 0 0.0 0.0 0.00 0.00 0.00 75 1010.2
20260510021025 16 0 0.0 0.0 0.00 0.00 0.00 75 1010.1
20260510020525 17 0 0.0 0.0 0.00 0.00 0.00 75 1010.0
20260510020046 17 0 0.0 0.0 0.00 0.00 0.00 74 1010.0
20260510015527 17 0 0.0 3.2 0.00 0.00 0.00 74 1010.0
20260510015027 17 0 0.0 3.2 0.00 0.00 0.00 74 1009.8
20260510014543 17 0 0.0 1.6 0.00 0.00 0.00 74 1009.8
20260510014027 17 0 0.0 0.0 0.00 0.00 0.00 73 1009.9
20260510013527 17 0 0.0 1.6 0.00 0.00 0.00 73 1009.9
20260510013041 17 0 0.0 1.6 0.00 0.00 0.00 73 1009.7
20260510012526 17 0 0.0 1.6 0.00 0.00 0.00 73 1009.8
20260510012026 17 0 0.0 0.0 0.00 0.00 0.00 72 1009.7
20260510011538 17 0 0.0 0.0 0.00 0.00 0.00 72 1009.7
20260510011025 17 0 0.0 0.0 0.00 0.00 0.00 72 1009.7
20260510010525 17 0 0.0 0.0 0.00 0.00 0.00 72 1009.6
20260510010041 18 0 0.0 0.0 0.00 0.00 0.00 72 1009.6
20260510005527 18 0 0.0 0.0 0.00 0.00 0.00 72 1009.6
20260510005026 18 0 0.0 0.0 0.00 0.00 0.00 71 1009.6
20260510004541 18 0 0.0 0.0 0.00 0.00 0.00 71 1009.5
20260510004026 18 0 0.0 0.0 0.00 0.00 0.00 70 1009.5
20260510003526 18 0 0.0 0.0 0.00 0.00 0.00 69 1009.4
20260510003039 19 0 0.0 0.0 0.00 0.00 0.00 69 1009.2
20260510002526 19 0 0.0 1.6 0.00 0.00 0.00 68 1009.2
20260510002026 20 0 0.0 1.6 0.00 0.00 0.00 67 1009.2
20260510001545 20 0 0.0 1.6 0.00 0.00 0.00 66 1008.9
20260510001026 20 0 0.0 1.6 0.00 0.00 0.00 65 1009.0
20260510000527 21 0 0.0 1.6 0.00 0.00 0.00 63 1009.1
20260510000044 21 0 0.0 1.6 0.00 0.00 0.00 62 1008.9
20260509235526 21 0 0.0 1.6 0.00 0.00 0.00 61 1008.9
20260509235028 22 0 0.0 3.2 0.00 0.00 0.00 59 1008.6
20260509234539 22 0 0.0 3.2 0.00 0.00 0.00 57 1008.5
20260509234026 22 0 0.0 8.0 0.00 0.00 0.00 55 1008.6
20260509233525 23 0 1.6 8.0 0.00 0.00 0.00 54 1008.6
20260509233048 23 160 0.0 6.4 0.00 0.00 0.00 53 1008.7
20260509232526 23 0 0.0 11.3 0.00 0.00 0.00 53 1008.6
20260509232027 23 223 0.0 11.3 0.00 0.00 0.00 52 1008.7
20260509231540 23 294 0.0 9.7 0.00 0.00 0.00 51 1008.6
20260509231025 23 0 0.0 9.7 0.00 0.00 0.00 51 1008.5
20260509230526 23 0 0.0 3.2 0.00 0.00 0.00 51 1008.5
20260509230039 23 0 0.0 3.2 0.00 0.00 0.00 52 1008.6
20260509225526 23 214 0.0 3.2 0.00 0.00 0.00 51 1008.7
20260509225026 23 0 0.0 6.4 0.00 0.00 0.00 51 1008.7
20260509224540 23 0 0.0 11.3 0.00 0.00 0.00 51 1008.5
20260509224026 23 0 1.6 14.5 0.00 0.00 0.00 50 1008.6
20260509223526 23 209 1.6 14.5 0.00 0.00 0.00 50 1008.4
20260509223042 23 143 3.2 14.5 0.00 0.00 0.00 50 1008.4
20260509222525 23 296 0.0 12.9 0.00 0.00 0.00 53 1008.5
20260509222026 23 178 3.2 12.9 0.00 0.00 0.00 51 1008.3
20260509221541 23 0 1.6 9.7 0.00 0.00 0.00 50 1008.4
20260509221027 23 0 1.6 11.3 0.00 0.00 0.00 50 1008.5
20260509220525 23 0 1.6 11.3 0.00 0.00 0.00 51 1008.5
20260509220042 23 268 4.8 11.3 0.00 0.00 0.00 50 1008.4
20260509215527 23 294 4.8 12.9 0.00 0.00 0.00 51 1008.4
20260509215026 23 0 1.6 14.5 0.00 0.00 0.00 49 1008.3
20260509214543 23 278 4.8 14.5 0.00 0.00 0.00 49 1008.4
20260509214026 24 256 4.8 12.9 0.00 0.00 0.00 50 1008.3
20260509213526 23 269 3.2 11.3 0.00 0.00 0.00 49 1008.3
20260509213047 24 277 3.2 11.3 0.00 0.00 0.00 48 1008.2
20260509212525 24 238 3.2 16.1 0.00 0.00 0.00 49 1008.2
20260509212026 23 225 3.2 16.1 0.00 0.00 0.00 48 1008.1
20260509211549 24 196 4.8 9.7 0.00 0.00 0.00 49 1008.3
20260509211027 24 186 3.2 9.7 0.00 0.00 0.00 47 1008.2
20260509210526 24 238 3.2 9.7 0.00 0.00 0.00 48 1008.2
20260509210044 24 209 3.2 16.1 0.00 0.00 0.00 50 1008.2
20260509205525 23 269 4.8 16.1 0.00 0.00 0.00 49 1008.3
20260509205030 23 75 3.2 14.5 0.00 0.00 0.00 51 1008.3
20260509204544 23 186 6.4 14.5 0.00 0.00 0.00 50 1008.4
20260509204025 23 288 4.8 14.5 0.00 0.00 0.00 49 1008.4
20260509203527 23 285 4.8 14.5 0.00 0.00 0.00 49 1008.4
20260509203053 23 259 3.2 17.7 0.00 0.00 0.00 50 1008.4
20260509202528 23 299 6.4 17.7 0.00 0.00 0.00 49 1008.5
20260509202031 23 202 6.4 16.1 0.00 0.00 0.00 51 1008.6
20260509201541 23 288 4.8 16.1 0.00 0.00 0.00 50 1008.7
20260509201028 23 253 3.2 12.9 0.00 0.00 0.00 52 1008.6
20260509200526 23 261 3.2 12.9 0.00 0.00 0.00 49 1008.6
20260509200041 23 294 4.8 11.3 0.00 0.00 0.00 50 1008.6
20260509195527 23 0 1.6 9.7 0.00 0.00 0.00 50 1008.7
20260509195026 23 238 4.8 11.3 0.00 0.00 0.00 48 1008.9
20260509194545 23 304 3.2 11.3 0.00 0.00 0.00 50 1008.8
20260509194026 23 196 4.8 16.1 0.00 0.00 0.00 47 1008.8
20260509193526 23 278 3.2 16.1 0.00 0.00 0.00 47 1008.9
20260509193047 23 0 1.6 11.3 0.00 0.00 0.00 50 1008.9